Showing default

COSMOS 1878, 18337

Orbit data source: Space-Track

COSMOS 1878, 18337 is a payload satellite owned by UNKS (CIS) in LEO that was launched on Mon, 07 Sep 1987 UTC via a TSIKLON-3 launch vehicle from the Plesetsk Missile And Space Complex (PKMTR). Payload-class satellites include a variety of spacecraft equipped with specific instruments for various scientific and technological missions. These include communications satellites like Starlink; space stations such as the ISS; scientific satellites like the Hubble; Earth observation satellites from companies like Planet Labs, Umbra, and HawkEye 360; GPS; miniature CubeSats for education and research; and military/defense satellites.

Loading next visibility...
Identifier
18337, 1987-074D
Orbit
LEO
Country
Flag of CISCIS
Related business
Manufacturer
NPO PM
Mission
Defense Communications
Bus & Motor
STRELA-3, Unknown motor
Mass
225 kg wet, 225 kg dry
Launch date (UTC)
1987-09-07 (38 years ago)
Launch vehicle
TSIKLON-3
Launch site
Plesetsk Missile And Space Complex (PKMTR)
Object type
Payload
Rocket body
Debris
Shape & HBR
Cyl, 0.8 m
Radar Cross Section
1.257 m², Large (>1 m²)

Expand to show TLE details & history
Last TLE update: 12 hours ago

TLE from 12 hours ago
0 COSMOS 1878
1 18337U 87074D   26061.62342925  .00000014  00000-0  17572-4 0  9997
2 18337  82.5751   1.0228 0004130 102.0081  70.7422 12.64382628775828
Epoch: 2026-03-02T14:57Z
TLE epoch observation values (Epoch: 2026-03-02T14:57:44.287Z)
Latitude
7.07644°
Longitude
155.25172°
Altitude
1,405.944 km
Speed
7.158 km/s
True Right ascension
12h 00m 24s
True Declination
7° 02' 17"
Sunlit
Object was in full shadow at epoch
Visualization orbit readout
Latitude
Unknown
Longitude
Unknown
Altitude
Unknown
Speed
Unknown
Apparent Right ascension
Unknown
Apparent Declination
Unknown
Sunlit
N/A
Visualization observer readout
Local Sidereal Time
07:10:44
Azimuth
Unknown
Elevation
Unknown
Doppler factor
Unknown
Orbital elements
Apogee altitude
1,405.438 km
Perigee altitude
1,399.012 km
Semi-major axis
7,780.362 km
Eccentricity
0.00041
Inclination
82.5751°
RAAN
1.0228°
Arg. of periapsis
102.0081°
True anomaly
70.78689°
Mean anomaly
70.7422°
Eccentric anomaly
70.76454°
Mean motion
3.16259 °/min
Orbital period
113.83 mins
BSTAR
0.000017572
Loading maneuver chart data...
Computing Atmospheric mass density...
Loading historical data...
Loading historical data...
Loading historical data...
Loading historical data...
Loading historical data...
Loading historical data...
Loading historical data...

Documentation

Showing up to 5 results
|